Bloomington, IN

1:03 AM EDT on July 22, 2017 (GMT -0400)
Monroe County

Weather History for KBMG - December, 2011

Change the Weather History Date:

Thursday, December 22, 2011

  Actual Average Record
Temperature  
Mean Temperature 44 °F 30 °F  
Max Temperature 47 °F 39 °F 61 °F (2013)
Min Temperature 41 °F 22 °F -6 °F (2000)
Degree Days  
Heating Degree Days 21 35  
Month to date heating degree days 573 701  
Since 1 July heating degree days 1495 1757  
Cooling Degree Days 0 0  
Month to date cooling degree days 0 0  
Year to date cooling degree days 1170 927  
Moisture  
Dew Point 41 °F    
Average Humidity 89    
Maximum Humidity 96    
Minimum Humidity 82    
Precipitation  
Precipitation 0.02 in 0.15 in 0.52 in (2007)
Month to date precipitation 2.60 2.31  
Year to date precipitation 53.46 46.32  
Sea Level Pressure  
Sea Level Pressure 30.05 in    
Wind  
Wind Speed 2 mph (NNE)    
Max Wind Speed 8 mph    
Max Gust Speed 13 mph    
Visibility 8 miles    
Events Rain    
T = Trace of Precipitation, MM = Missing Value Source: NWS Daily Summary

Daily Weather History Graph

Daily Weather History Graph

Search for Another Location

Airport or City:

Trip Planner

Search our weather history database for the weather conditions in past years. The results will help you decide how hot, cold, wet, or windy it might be!

Date:

Astronomy

Dec. 22, 2011 Rise Set
Actual Time 8:02 AM EST 5:27 PM EST
Civil Twilight 7:32 AM EST 5:57 PM EST
Nautical Twilight 6:58 AM EST 6:31 PM EST
Astronomical Twilight 6:26 AM EST 7:03 PM EST
Moon 5:45 AM EST 3:37 PM EST
Length of Visible Light 10h 25m
Length of Day
9h 24m
Waning Crescent, 6% of the Moon is Illuminated
Dec 22
Waning Crescent
Dec 24
New
Jan 1
First Quarter
Jan 9
Full
Jan 16
Last Quarter

Hourly Weather History & Observations

Time (EST) Temp. Windchill Dew Point Humidity Pressure Visibility Wind Dir Wind Speed Gust Speed Precip Events Conditions
12:00 AM 44.6 °F - 39.2 °F 81% 29.98 in 10.0 mi Calm Calm - N/A   Overcast
12:53 AM 44.1 °F - 39.9 °F 85% 29.99 in 10.0 mi Calm Calm - N/A   Overcast
1:53 AM 43.0 °F - 39.9 °F 89% 30.00 in 10.0 mi Calm Calm - N/A   Overcast
2:53 AM 43.0 °F - 39.9 °F 89% 30.03 in 10.0 mi Calm Calm - N/A   Overcast
3:53 AM 43.0 °F - 39.9 °F 89% 30.05 in 10.0 mi Calm Calm - N/A   Overcast
4:53 AM 43.0 °F - 39.9 °F 89% 30.04 in 10.0 mi Calm Calm - N/A   Overcast
5:49 AM 42.8 °F - 41.0 °F 93% 30.04 in 9.0 mi Calm Calm - N/A   Overcast
5:53 AM 43.0 °F - 41.0 °F 93% 30.05 in 8.0 mi Calm Calm - N/A   Overcast
6:53 AM 43.0 °F 41.3 °F 41.0 °F 93% 30.01 in 8.0 mi East 3.5 mph - N/A   Overcast
7:53 AM 43.0 °F - 41.0 °F 93% 30.03 in 7.0 mi Calm Calm - N/A   Overcast
10:53 AM 45.0 °F 41.8 °F 42.1 °F 90% 30.10 in 9.0 mi SSE 5.8 mph - N/A   Overcast
11:01 AM 46.4 °F 43.5 °F 41.0 °F 81% 30.09 in 10.0 mi SE 5.8 mph - N/A   Overcast
11:53 AM 45.0 °F 43.5 °F 42.1 °F 90% 30.09 in 10.0 mi SSE 3.5 mph - N/A   Overcast
12:53 PM 46.0 °F - 41.0 °F 83% 30.05 in 10.0 mi Calm Calm - N/A   Overcast
1:36 PM 44.6 °F 43.1 °F 41.0 °F 87% 30.02 in 10.0 mi SSE 3.5 mph - N/A   Overcast
1:53 PM 45.0 °F 42.6 °F 41.0 °F 86% 30.02 in 9.0 mi SE 4.6 mph - N/A   Overcast
2:44 PM 46.4 °F - 41.0 °F 81% 30.00 in 10.0 mi Calm Calm - N/A   Overcast
3:06 PM 46.4 °F - 41.0 °F 81% 30.00 in 10.0 mi Calm Calm - N/A   Overcast
3:53 PM 46.0 °F 43.9 °F 41.0 °F 83% 29.99 in 8.0 mi North 4.6 mph - N/A   Overcast
4:53 PM 44.1 °F 41.5 °F 41.0 °F 89% 29.99 in 5.0 mi NNE 4.6 mph - 0.00 in Rain Light Rain
5:05 PM 44.6 °F 43.1 °F 42.8 °F 93% 29.99 in 4.0 mi NNE 3.5 mph - 0.00 in Rain Light Rain
5:26 PM 44.6 °F 41.4 °F 42.8 °F 93% 30.00 in 6.0 mi North 5.8 mph - 0.00 in Rain Light Rain
5:43 PM 44.6 °F 42.2 °F 41.0 °F 87% 30.01 in 5.0 mi North 4.6 mph - 0.00 in Rain Light Rain
5:53 PM 44.1 °F - 41.0 °F 89% 30.04 in 5.0 mi Calm Calm - 0.00 in Rain Light Rain
6:01 PM 44.6 °F - 42.8 °F 93% 30.04 in 5.0 mi Calm Calm - 0.00 in Rain Light Rain
6:22 PM 44.6 °F 41.4 °F 41.0 °F 87% 30.04 in 5.0 mi North 5.8 mph - 0.01 in Rain Light Rain
6:53 PM 43.0 °F 38.8 °F 41.0 °F 93% 30.06 in 7.0 mi North 6.9 mph - 0.02 in Rain Light Rain
7:18 PM 42.8 °F 39.3 °F 39.2 °F 87% 30.06 in 7.0 mi North 5.8 mph - 0.00 in Rain Light Rain
7:25 PM 42.8 °F 40.1 °F 39.2 °F 87% 30.06 in 8.0 mi NNE 4.6 mph - 0.00 in   Overcast
7:53 PM 42.1 °F 39.2 °F 39.9 °F 92% 30.08 in 6.0 mi North 4.6 mph - 0.00 in Rain Light Rain
8:53 PM 42.1 °F 40.2 °F 39.9 °F 92% 30.10 in 7.0 mi Variable 3.5 mph - 0.00 in Rain Light Rain
9:06 PM 42.8 °F 41.1 °F 39.2 °F 87% 30.09 in 7.0 mi NNW 3.5 mph - 0.00 in Rain Light Rain
9:53 PM 42.1 °F - 39.0 °F 89% 30.11 in 10.0 mi Calm Calm - 0.00 in   Overcast
10:53 PM 42.1 °F 38.4 °F 39.0 °F 89% 30.13 in 9.0 mi WNW 5.8 mph - N/A   Overcast
11:16 PM 41.0 °F 36.4 °F 39.2 °F 93% 30.12 in 10.0 mi NW 6.9 mph - N/A   Overcast
11:53 PM 41.0 °F 39.0 °F 37.9 °F 89% 30.14 in 10.0 mi Variable 3.5 mph - N/A   Overcast